K0CPM-2 Weather Reports


Display with metric or nautical units.
time (UTC)temp
F
wind
direction
speed
MPH
gust
MPH
rain 1hr
in
rain 24hr
in
rain mn
in
humidity
%
barometer
mb
20260504081526 56 37 0.0 0.0 0.00 0.00 0.00 85 1014.6
20260504044550 60 130 0.0 0.0 0.00 0.00 0.00 78 1016.4
20260504043108 62 129 0.0 0.0 0.00 0.00 0.00 77 1016.6
20260504041546 63 129 0.0 0.0 0.00 0.00 0.00 76 1016.7
20260504040046 63 121 0.0 2.0 0.00 0.00 0.00 74 1016.5
20260504034551 64 121 0.0 2.0 0.00 0.00 0.00 71 1016.5
20260504033045 65 121 0.0 3.0 0.00 0.00 0.00 67 1016.6
20260504031551 65 124 0.0 1.0 0.00 0.00 0.00 68 1016.5
20260504030101 65 125 0.0 2.0 0.00 0.00 0.00 65 1016.5
20260504024544 66 141 1.0 3.0 0.00 0.00 0.00 61 1016.3
20260504023044 67 132 0.0 3.0 0.00 0.00 0.00 58 1016.3
20260504021547 67 123 1.0 3.0 0.00 0.00 0.00 56 1016.2
20260504020041 66 129 0.0 2.0 0.00 0.00 0.00 59 1016.0
20260504014541 65 122 1.0 5.0 0.00 0.00 0.00 64 1015.8
20260504013047 64 149 0.0 0.0 0.00 0.00 0.00 58 1015.6
20260504011541 65 149 0.0 0.0 0.00 0.00 0.00 53 1015.5
20260504010050 67 149 0.0 0.0 0.00 0.00 0.00 50 1015.5
20260504004545 69 149 0.0 0.0 0.00 0.00 0.00 46 1015.4
20260504003039 71 150 0.0 0.0 0.00 0.00 0.00 44 1015.2
20260504001541 72 158 0.0 0.0 0.00 0.00 0.00 42 1015.2
20260504000038 73 120 0.0 2.0 0.00 0.00 0.00 41 1015.1
20260503234540 74 130 0.0 2.0 0.00 0.00 0.00 40 1015.2
20260503233035 76 149 0.0 2.0 0.00 0.00 0.00 40 1015.3
20260503231534 78 146 0.0 2.0 0.00 0.00 0.00 36 1015.5
20260503230039 79 145 0.0 3.0 0.00 0.00 0.00 36 1015.5
20260503224532 79 121 0.0 3.0 0.00 0.00 0.00 34 1015.6
20260503223031 79 179 0.0 2.0 0.00 0.00 0.00 34 1015.6
20260503221532 80 122 1.0 4.0 0.00 0.00 0.00 34 1015.8
20260503220034 80 181 0.0 2.0 0.00 0.00 0.00 35 1015.8
20260503214536 79 137 1.0 4.0 0.00 0.00 0.00 35 1016.0
20260503213032 80 188 0.0 4.0 0.00 0.00 0.00 35 1016.3
20260503211523 80 110 1.0 4.0 0.00 0.00 0.00 33 1016.5
20260503210021 80 158 0.0 2.0 0.00 0.00 0.00 33 1016.7
20260503204526 79 240 1.0 4.0 0.00 0.00 0.00 35 1016.9
20260503203020 80 127 1.0 3.0 0.00 0.00 0.00 32 1017.0
20260503201518 79 149 1.0 4.0 0.00 0.00 0.00 33 1017.3
20260503200017 79 134 1.0 4.0 0.00 0.00 0.00 33 1017.5
20260503194516 78 173 0.0 6.0 0.00 0.00 0.00 36 1017.6
20260503193016 79 114 1.0 5.0 0.00 0.00 0.00 35 1017.9
20260503191515 79 177 1.0 6.0 0.00 0.00 0.00 34 1018.2
20260503190017 79 186 1.0 5.0 0.00 0.00 0.00 33 1018.4
20260503184514 79 173 1.0 4.0 0.00 0.00 0.00 35 1018.6
20260503183012 79 127 0.0 5.0 0.00 0.00 0.00 34 1018.6
20260503181523 78 177 0.0 3.0 0.00 0.00 0.00 34 1018.6
20260503180015 77 149 1.0 4.0 0.00 0.00 0.00 35 1018.9
20260503174506 77 183 1.0 4.0 0.00 0.00 0.00 34 1019.2
20260503173006 78 143 0.0 3.0 0.00 0.00 0.00 34 1019.6
20260503171505 77 228 1.0 6.0 0.00 0.00 0.00 34 1019.8